Regional Weather Roundup
Issued by NWS

Home | Current Version | Previous Version | Graphics & Text | Print | Product List | Glossary On
Versions: 1 2 3 4 5 6 7 8 9 10 11 12 13 14 15 16 17 18 19 20 21 22 23 24 25 26 27 28 29 30 31 32 33 34 35 36 37 38 39 40 41 42 43 44 45 46 47 48 49
000
ASUS45 KBOU 261307
RWRCO

WEATHER ROUNDUP FOR COLORADO
NATIONAL WEATHER SERVICE DENVER/BOULDER CO
600 AM MST THU FEB 26 2015

NOTE: "FAIR" INDICATES FEW OR NO CLOUDS BELOW 12000 FEET WITH NO
SIGNIFICANT WEATHER AND/OR OBSTRUCTIONS TO VISIBILITY.

COZ001>005-013-030-031-261400-
...NORTHWEST COLORADO...

CITY           SKY/WX    TMP DP  RH WIND       PRES   REMARKS
CRAIG            N/A     10   7  87 CALM      30.04S
HAYDEN         PTCLDY     9   5  85 S5        30.01S WCI   0
MEEKER         CLEAR     14   9  80 CALM      30.03R
MOUNT WERNER   NOT AVBL
STEAMBOAT SPGS CLOUDY    13  10  90 CALM      30.00S
WALDEN         CLOUDY    10   5  79 CALM      29.96S
$$

COZ006>008-011-261400-
...WEST CENTRAL VALLEYS...

CITY           SKY/WX    TMP DP  RH WIND       PRES   REMARKS
GRAND JUNCTION CLEAR     19  15  84 CALM      30.04R
MONTROSE       PTCLDY    16  12  84 S10       30.05F WCI   4
EAGLE          CLOUDY    16  14  93 CALM      30.05R
RIFLE          CLEAR     18  13  80 E5        30.06R WCI  11
DELTA          CLOUDY    27  22  79 SE5       30.05S WCI  22
NUCLA          PTCLDY    23  14  68 E9        30.04S WCI  13
$$

COZ017>023-064>068-261400-
...SOUTHWEST COLORADO...

CITY           SKY/WX    TMP DP  RH WIND       PRES   REMARKS
DURANGO        PTCLDY    14  12  92 E3        29.97S
CORTEZ         CLEAR     22  17  81 NE7       30.01S WCI  13
PAGOSA SPRINGS PTCLDY    12  11  94 CALM      29.97S
TELLURIDE      MOCLDY    12   8  86 SE3       29.96F
WOLF CREEK PAS PTCLDY     5  -2  72 NW7       29.94F WCI  -7
$$

COZ009-010-012-014-032>034-037-058>063-261400-
...CENTRAL COLORADO...

CITY           SKY/WX    TMP DP  RH WIND       PRES   REMARKS
ASPEN          PTCLDY    10   4  76 S10       29.96S WCI  -4
BUENA VISTA    FLURRIES   6   2  83 W3        29.98S
COPPER MTN     CLEAR      5  -4  66 W20       29.81F WCI -15
BERTHOUD PASS  FAIR      -4  -9  77 MISG      29.80S
COTTONWOOD PAS PTCLDY    14  10  85 CALM      29.91F FOG
GUNNISON       PTCLDY     3  -9  55 CALM      30.00S
KREMMLING      PTCLDY     0  -6  78 CALM      30.01S
LEADVILLE      PTCLDY    -3  -6  87 CALM      29.89F
MONARCH PASS     N/A      3   0  85 MISG      29.94F
SALIDA         PTCLDY    16  13  86 E6        30.07S WCI   8
SUNLIGHT       PTCLDY   N/A N/A N/A CALM        N/A
WILKERSON PASS LGT SNOW N/A N/A N/A SW6       29.88F
$$

COZ069>075-261400-
...SAN LUIS VALLEY/SANGRE DE CRISTO MOUNTAINS...

CITY           SKY/WX    TMP DP  RH WIND       PRES   REMARKS
ALAMOSA        FOG        2  -1  88 VRB5      29.99R VSB 1/2 WCI  -8
LA VETA PASS   LGT SNOW   1  -2  85 MISG      29.93S
SAGUACHE       MOCLDY    14  10  85 E3        29.97S
$$

COZ035-036-038>040-261400-
...NORTHERN COLORADO FRONT RANGE...

CITY           SKY/WX    TMP DP  RH WIND       PRES   REMARKS
DENVER INTL AP FLURRIES   5   3  91 E7        30.14S WCI  -7
DMNS CITY PARK   N/A      9   7  89 E6        30.15S WCI  -1
AURORA         PTCLDY     3   1  91 SE8       30.14S WCI -10
FRONT RANGE AP NOT AVBL
ERIE MUNI ARPT CLOUDY    13  12  93 E6        30.17S WCI   4
BOULDER MUN AP LGT SNOW  16  14  93 CALM      30.15R
CENTENNIAL     PTCLDY     9   6  88 SE6       30.11F WCI  -1
BROOMFIELD     LGT SNOW  12  10  92 E7        30.13S WCI   2
FORT COLLINS   PTCLDY    14   9  79 E7        30.18S WCI   4
LONGMONT       FLURRIES  18  13  83 E5        30.19S WCI  11
$$

COZ041-046-047-076>085-087-088-261400-
...PIKES PEAK/PALMER DIVIDE AND SOUTHERN FOOTHILLS...

CITY           SKY/WX    TMP DP  RH WIND       PRES   REMARKS
COLO. SPRINGS  LGT SNOW  15  10  80 CALM      30.11R FOG
A. F. ACADEMY  FLURRIES  11   6  78 N2        30.07F
ELLICOTT       NOT AVBL
FALCON         LGT SNOW  11   6  83 CALM      30.07S
FORT CARSON    FLURRIES  16  10  79 CALM      30.11S
LIMON          FLURRIES  12   9  87 NE8       30.15S WCI   0
MONUMENT HILL  LGT SNOW   7   5  92 CALM      30.03F VSB 1
TRINIDAD       LGT SNOW  19  16  88 N10       30.12R FOG     WCI   7
$$

COZ042>045-048>051-090-091-261400-
...NORTHEAST COLORADO...

CITY           SKY/WX    TMP DP  RH WIND       PRES   REMARKS
GREELEY ARPT   CLOUDY    16   3  57 E8        30.19S WCI   5
AKRON          CLOUDY    10   6  84 NE7       30.20F WCI  -1
BURLINGTON     CLOUDY    15   8  73 N12       30.24R WCI   2
WRAY           FLURRIES  15  10  79 NE9       30.30S WCI   3
STERLING       FLURRIES  14   9  79 E6        30.26R WCI   5
HOLYOKE        NOT AVBL
FORT MORGAN    CLOUDY    13  10  86 E6        30.22S WCI   4
$$

COZ086-089-092>099-261400-
...SOUTHEAST COLORADO...

CITY           SKY/WX    TMP DP  RH WIND       PRES   REMARKS
PUEBLO         LGT SNOW  17  15  92 SE10      30.20R FOG     WCI   5
LA JUNTA       LGT SNOW  18  14  84 E12       30.24R FOG     WCI   5
LAMAR          CLOUDY    17  10  74 NE12      30.25R WCI   4
SPRINGFIELD      N/A     15  11  83 NE14G22   30.21R WCI   0
$$



USA.gov is the U.S. government's official web portal to all federal, state and local government web resources and services.